Theta_e
307 307 306 308 313 311 310 312 312 315 320 322 321 315 310 314 323 318 312 312 311 305 304 305 304 303 304 306 306 306 306 307 308 309 309 308 308 308 308 309 309 310 310 311 312 313 314 315 316 317 317 317 317 318 319 319 319 319 320 320 321 321 322 322 322 322 321 320 319 317 317 318 318 317 316 317 317 317 317 317 317 317 316 317 316 315 314
308 308 307 309 312 311 309 309 308 311 317 316 314 313 308 310 314 311 309 309 306 303 303 303 302 302 303 304 305 306 306 305 306 306 306 306 306 306 306 307 307 307 308 308 309 310 311 312 312 313 314 315 315 316 317 317 317 318 318 319 320 320 321 321 322 322 322 321 320 319 319 318 318 318 318 317 317 316 316 317 317 317 316 315 315 315 315
307 308 309 309 311 314 312 309 307 308 311 311 310 308 307 309 309 304 305 308 305 302 301 301 301 301 301 301 302 303 304 304 303 303 303 304 305 305 305 305 306 306 306 307 307 307 307 307 308 309 309 310 311 312 312 312 313 315 317 319 319 320 319 320 320 320 320 320 319 319 319 318 318 319 317 317 317 316 316 316 317 317 316 315 314 314 314
308 306 308 308 310 311 310 311 311 310 311 311 309 306 306 310 309 305 308 309 305 302 301 300 299 299 299 299 299 299 300 301 300 300 300 301 302 303 304 304 305 305 305 306 306 306 306 306 306 306 307 307 308 309 310 310 310 311 313 315 317 318 318 319 319 319 319 319 319 319 319 319 318 318 317 317 317 317 316 317 317 317 316 315 314 313 313
308 306 307 308 310 311 311 311 309 307 306 307 307 305 304 305 305 308 311 308 304 302 300 299 299 298 298 298 298 298 298 298 299 299 299 299 300 301 302 303 303 304 304 305 305 305 305 305 305 306 306 306 307 306 307 308 308 308 309 310 312 314 315 317 318 318 318 318 318 319 319 318 317 317 317 317 317 317 317 317 317 316 315 315 315 314 314
309 307 308 309 311 313 311 306 304 305 305 306 306 305 303 302 303 305 306 303 302 301 300 299 299 298 298 298 297 298 298 298 298 298 298 299 300 300 300 301 302 302 303 304 304 305 305 305 305 305 305 305 306 306 306 306 306 307 307 308 310 312 313 315 317 317 317 317 318 318 319 318 316 316 317 318 317 317 317 317 316 315 315 315 315 315 315
311 307 308 310 312 310 306 302 302 304 303 302 303 302 300 301 302 301 301 301 301 300 299 298 298 297 297 297 297 297 298 298 298 298 298 299 299 299 300 300 300 301 302 303 304 304 305 305 305 305 305 305 305 305 306 306 305 306 306 307 309 310 311 313 315 315 316 316 318 318 318 317 316 317 317 318 317 317 317 316 316 315 315 315 315 315 316
308 308 310 311 308 304 302 302 302 302 302 302 305 304 301 301 301 301 302 301 299 299 299 298 298 297 297 297 297 297 297 297 298 298 298 298 298 298 298 298 298 299 299 299 300 301 302 303 304 305 305 305 305 305 306 305 306 306 306 306 307 308 308 309 311 314 315 316 317 317 317 316 316 317 318 317 317 317 316 315 315 315 315 315 315 315 315
307 310 308 306 305 304 303 303 301 301 301 302 305 306 302 299 299 300 301 301 298 297 299 299 299 299 299 299 298 296 297 298 298 298 298 298 298 298 298 298 298 297 298 298 298 298 299 299 301 303 304 305 305 305 305 305 306 305 305 306 306 307 308 309 310 312 314 314 315 316 315 315 316 317 317 317 317 316 316 315 314 314 313 314 314 315 314
306 310 308 306 309 310 306 304 302 299 299 298 301 305 303 298 297 297 299 300 297 296 298 300 300 300 302 302 300 297 297 298 298 298 299 299 299 299 299 299 299 299 299 298 298 298 298 297 298 299 301 303 304 305 305 305 306 305 305 305 305 306 307 308 309 310 311 312 312 313 314 315 316 317 316 316 315 315 315 314 313 313 313 314 314 314 313
305 311 313 310 311 309 304 303 301 298 298 298 300 306 305 299 296 296 297 297 296 297 298 299 300 303 306 306 301 297 297 298 298 298 298 298 299 299 298 299 299 299 300 299 298 298 298 298 298 298 298 300 301 303 304 305 305 306 305 304 305 305 305 306 307 307 308 309 309 309 310 310 312 313 312 312 313 313 313 313 313 313 313 313 312 311 309
307 310 310 307 306 304 301 301 300 297 297 298 302 309 307 298 295 296 296 296 297 297 298 298 300 303 305 304 300 297 297 297 297 297 297 297 297 297 297 298 298 298 298 298 298 298 298 298 298 298 298 298 299 300 302 303 304 305 305 305 304 305 305 305 305 306 306 307 308 307 307 308 308 308 308 309 310 309 310 310 311 311 311 310 310 309 307
308 310 309 305 303 302 300 299 299 297 297 301 306 308 303 296 295 297 296 297 297 297 297 298 298 299 299 299 298 297 297 297 296 297 297 296 297 297 297 297 297 297 297 297 297 297 297 297 297 297 297 297 298 298 299 301 303 303 304 305 305 305 305 305 305 305 305 306 307 307 307 307 307 307 306 306 306 306 306 306 307 308 308 307 307 306 305
305 306 307 305 304 301 298 297 297 297 301 305 304 301 297 295 297 297 296 297 297 297 297 297 297 297 297 297 297 297 297 297 296 296 296 296 296 296 296 296 296 296 296 296 297 296 296 296 296 296 297 297 297 297 297 299 300 301 302 303 304 305 305 305 305 305 305 305 306 306 307 307 307 307 306 305 305 304 304 304 305 305 305 304 304 303 303
302 303 305 307 305 300 296 297 298 299 302 302 298 296 296 297 297 297 297 297 297 297 297 297 297 297 297 297 297 297 296 296 296 296 296 296 296 296 296 296 296 296 296 296 296 296 296 296 296 296 296 296 297 297 297 297 298 299 300 301 302 303 304 305 305 305 305 305 305 305 306 307 307 307 307 307 306 306 305 305 305 304 303 303 303 303 303
304 307 305 302 300 297 296 298 299 298 299 298 296 296 297 297 297 297 297 297 297 297 297 297 297 297 297 297 297 296 296 296 296 296 296 296 296 295 296 296 295 295 295 295 296 296 296 296 296 296 296 296 296 296 296 297 297 298 299 300 300 301 302 303 304 305 305 305 305 304 305 305 306 307 307 307 307 307 306 306 306 306 305 305 304 304 304
300 303 300 297 296 297 297 298 297 296 297 297 297 298 298 297 298 297 297 297 297 297 297 297 297 297 296 296 296 296 296 296 296 296 296 295 295 295 295 295 295 295 295 295 295 295 295 295 295 295 295 295 296 296 296 296 297 297 297 298 299 300 301 301 302 303 303 304 305 305 304 304 305 305 305 305 305 306 306 306 306 306 306 306 305 306 306
297 298 297 296 297 297 297 297 297 297 298 297 298 298 297 297 298 297 297 297 297 297 297 297 296 296 296 296 296 296 296 296 295 295 295 295 295 294 294 294 294 294 294 295 295 295 295 295 295 295 295 295 295 295 296 296 296 296 297 297 298 298 299 300 301 301 302 302 303 304 305 305 304 304 304 304 304 304 305 306 306 306 306 307 306 306 306
299 299 298 297 297 297 297 297 297 297 297 297 297 297 297 297 297 297 297 297 296 296 297 296 296 296 296 296 296 295 295 295 295 294 294 294 293 293 293 293 293 293 293 293 294 294 294 295 295 295 295 295 295 295 295 295 296 296 297 297 297 297 298 299 300 301 301 302 302 302 304 305 305 304 304 304 304 304 304 304 305 305 306 306 306 305 304
298 298 297 296 297 297 297 297 297 297 297 297 297 297 297 296 297 297 296 296 296 296 296 296 296 296 295 295 295 295 294 294 293 293 293 292 292 292 292 292 292 292 293 293 293 293 293 294 294 294 295 295 295 295 295 295 295 296 296 297 297 297 297 298 299 300 300 301 301 302 302 303 303 303 303 304 304 305 305 304 304 304 305 305 304 304 303
296 296 296 296 296 297 297 297 297 297 297 296 296 296 296 296 296 296 296 296 296 296 296 296 295 295 295 294 294 293 293 292 292 292 292 292 292 292 292 292 292 292 292 292 292 293 293 293 293 293 294 294 294 294 294 294 294 294 295 296 297 297 297 297 297 298 299 300 300 301 302 302 301 302 302 303 303 303 303 304 303 303 303 303 303 303 303
298 297 297 296 297 298 297 296 296 296 296 296 296 296 296 296 296 296 296 296 296 295 295 295 294 294 293 293 292 292 292 292 292 292 292 292 292 292 292 292 292 292 292 292 292 292 293 293 293 293 293 293 294 293 293 293 293 293 294 295 296 297 297 297 297 297 298 299 299 300 301 301 302 302 302 302 302 302 302 303 303 303 303 303 303 303 302
299 297 296 296 296 297 296 296 296 296 296 296 296 296 296 296 296 296 295 295 295 295 294 294 293 292 292 292 292 292 291 292 292 292 291 291 291 291 291 291 291 291 292 292 292 293 293 293 293 293 293 294 294 293 293 293 293 293 293 293 294 296 296 297 297 297 297 298 298 299 299 300 301 301 302 302 302 302 303 303 302 302 302 302 302 302 301
296 296 296 296 296 296 296 296 296 296 296 296 296 296 296 296 295 295 295 295 294 294 293 292 292 292 292 291 291 291 291 292 292 291 291 291 291 291 291 291 291 292 292 292 292 292 292 292 292 292 293 293 293 293 293 293 293 293 293 293 293 294 295 296 297 297 297 297 298 298 298 299 300 300 300 301 302 303 303 303 303 302 302 302 302 301 301
296 296 296 296 296 296 296 296 296 296 296 296 295 296 295 295 295 295 294 294 293 293 292 292 291 291 291 291 291 291 291 292 291 291 291 291 290 291 291 292 292 292 293 293 293 293 293 293 293 292 293 293 294 294 294 293 293 293 293 293 293 293 294 295 296 296 297 297 298 298 298 298 298 299 299 300 301 301 301 302 302 302 302 302 302 302 302
296 296 296 296 296 296 296 296 295 296 296 295 295 296 295 295 294 294 293 293 293 292 291 290 290 290 290 291 291 291 291 291 291 291 290 290 291 292 292 292 293 293 294 295 295 294 294 294 294 294 294 295 295 295 295 295 294 294 293 293 293 293 293 294 295 296 296 297 297 298 298 298 298 298 299 299 300 300 300 300 301 301 302 302 302 302 302
296 296 296 296 295 295 295 295 295 295 295 295 295 295 295 294 293 293 292 292 292 291 290 289 289 289 290 290 291 291 291 291 291 290 290 291 292 292 292 292 294 295 295 295 295 295 296 296 296 295 296 296 296 296 295 295 295 295 294 294 293 293 294 293 294 295 296 296 297 297 298 298 298 298 298 298 299 300 300 300 300 301 301 301 301 301 302
296 296 296 295 295 295 295 295 295 295 295 295 295 294 294 293 292 292 292 292 291 291 290 290 290 290 289 289 290 291 291 291 290 290 291 292 292 292 293 294 295 296 296 296 296 297 297 296 296 296 295 295 295 295 295 295 295 295 295 294 294 294 294 294 293 294 295 296 297 297 297 297 297 298 298 298 298 299 299 300 300 300 300 301 301 301 301
296 296 296 295 295 295 295 295 296 295 295 295 294 294 293 293 292 292 292 291 291 292 292 291 291 291 290 289 290 291 291 290 290 291 292 292 292 293 295 296 296 296 296 297 297 297 297 296 296 295 295 295 295 295 295 295 295 295 295 295 295 294 294 294 294 294 294 295 296 297 297 297 297 297 298 299 299 299 299 299 299 299 300 301 301 300 300
296 296 296 295 295 295 295 295 296 295 295 295 294 293 292 293 292 292 292 291 291 292 292 291 291 291 290 289 290 291 290 290 291 292 292 292 293 295 296 297 297 297 297 297 297 297 297 296 296 295 295 295 295 295 295 295 295 295 295 295 295 294 294 294 294 294 294 294 294 295 297 297 297 297 298 299 300 300 299 299 300 300 300 300 300 300 300
296 295 295 295 295 295 295 295 295 295 295 294 293 292 292 293 292 292 292 292 292 292 292 292 292 291 289 289 290 291 290 290 291 292 292 293 294 295 296 297 297 297 297 297 297 297 297 296 296 295 294 295 295 296 297 297 297 297 296 296 295 295 295 294 294 294 294 294 294 294 295 296 297 297 297 297 299 299 299 299 299 300 301 301 300 300 300
295 295 295 295 295 295 295 295 295 295 295 294 293 292 292 292 293 293 293 292 292 293 292 292 292 290 289 289 290 291 290 291 292 292 292 294 295 296 296 297 297 297 297 297 297 297 297 296 296 295 295 296 297 298 299 299 298 298 298 298 297 296 296 295 295 295 295 295 294 294 294 295 296 296 296 296 297 298 299 299 299 300 301 301 300 300 300
295 294 295 295 295 295 295 295 295 295 295 294 293 293 292 293 293 294 293 292 292 292 292 292 291 290 288 289 290 291 291 291 292 292 293 294 295 296 296 297 297 297 297 297 297 297 297 296 296 296 296 296 297 298 299 299 298 298 298 298 298 298 297 296 296 296 296 296 295 294 294 295 295 296 296 296 296 297 298 298 299 300 300 300 300 300 300
294 294 295 295 294 295 295 295 295 294 294 293 293 293 293 294 294 294 292 292 291 291 291 291 289 288 288 290 291 291 292 292 293 293 293 294 295 296 297 297 297 297 297 296 297 297 297 296 296 296 296 296 297 298 299 299 298 298 298 298 299 298 297 296 296 296 296 297 296 295 294 295 295 296 296 295 296 297 298 299 299 300 300 300 300 300 300
294 295 295 295 294 294 294 294 294 294 293 293 293 293 293 293 293 292 291 291 290 290 290 289 288 287 289 291 291 292 292 292 293 293 294 294 296 296 297 297 297 297 296 296 297 297 297 297 296 296 296 296 297 297 298 299 298 298 298 298 298 297 296 296 296 296 296 297 296 295 294 294 294 295 295 296 297 298 299 299 299 300 300 300 300 299 298
295 295 295 295 294 294 294 294 294 294 294 293 293 293 293 293 292 292 291 291 290 289 289 288 287 287 290 291 292 292 293 293 293 294 294 295 296 297 297 297 297 297 296 296 297 297 297 297 297 296 296 296 297 297 298 298 299 298 298 297 297 296 296 296 296 296 296 296 295 295 295 294 295 295 296 296 298 299 299 298 298 298 300 300 299 297 296
295 295 295 294 294 294 294 294 294 294 294 294 293 293 293 292 292 291 291 290 289 288 288 287 287 287 289 290 292 293 293 293 293 294 295 296 296 296 296 297 297 297 296 296 296 296 297 297 297 297 296 296 297 297 297 298 298 299 298 298 297 297 296 296 296 296 296 296 296 297 296 296 296 296 296 297 298 299 298 296 296 297 299 299 297 295 295
295 295 295 294 294 294 294 294 294 294 294 293 293 292 292 292 292 291 291 290 288 287 287 287 287 287 288 289 291 293 293 293 294 295 295 295 295 296 296 297 297 296 296 296 296 296 296 296 296 296 296 296 296 297 297 297 298 298 298 298 298 297 297 296 296 296 297 297 298 298 298 297 297 296 296 297 298 298 296 296 296 296 297 296 295 295 296
295 295 295 294 294 294 294 294 294 293 293 292 292 292 292 292 292 291 291 289 288 286 287 287 287 287 286 287 289 292 293 294 294 294 294 294 294 294 295 296 296 296 296 296 296 296 296 296 296 296 296 296 296 296 297 297 297 297 297 297 297 297 297 297 297 297 297 297 297 298 298 298 298 297 297 297 297 296 296 295 295 295 295 295 296 296 296
295 295 295 295 294 295 294 293 292 292 292 293 293 293 293 292 291 291 290 289 286 286 287 287 287 286 286 286 287 290 292 293 293 293 292 292 292 292 292 293 294 295 296 296 296 296 296 296 296 296 296 296 296 296 296 297 296 296 296 296 296 296 296 296 296 296 296 296 297 297 297 297 297 297 296 296 295 295 295 295 295 295 296 296 296 296 295
295 295 295 295 295 294 294 293 292 292 292 293 293 293 292 291 291 291 290 287 285 286 287 287 287 286 286 286 287 288 289 290 291 291 291 290 290 290 290 290 291 292 293 294 295 296 296 296 296 296 296 296 296 296 296 296 297 297 296 296 296 296 296 296 296 296 296 296 296 296 295 295 295 295 295 295 295 295 295 295 296 296 296 296 295 295 295
296 296 295 295 295 295 294 293 293 292 292 293 293 293 292 291 291 291 289 287 285 286 287 287 286 285 285 286 286 287 287 287 288 288 288 288 288 288 289 289 289 289 290 291 293 294 295 296 296 296 296 296 296 295 295 296 297 297 297 296 296 296 296 296 296 296 296 296 296 296 295 295 295 295 295 295 295 295 296 296 296 296 296 296 296 296 295
296 296 295 295 295 295 294 293 293 292 293 293 293 293 292 291 291 291 289 286 285 286 286 286 285 285 285 285 286 286 286 287 287 287 287 287 287 287 287 288 288 288 288 289 290 291 292 293 295 296 296 295 295 295 295 295 296 296 297 297 297 297 297 297 296 296 297 297 296 296 296 296 296 296 296 296 296 296 296 296 296 296 296 296 295 295 294
296 296 295 295 295 295 295 294 293 293 293 293 293 293 293 292 291 291 289 287 286 286 286 286 285 285 285 285 285 285 286 286 286 286 286 286 286 286 286 287 287 287 287 288 289 290 290 290 291 293 294 295 295 295 295 295 295 296 296 296 296 296 296 296 296 296 296 296 296 297 297 296 296 296 296 296 296 296 296 296 296 295 295 294 294 294 293
295 295 295 295 295 295 295 295 294 293 293 292 293 293 293 292 292 291 290 289 287 286 286 286 286 285 285 285 285 285 286 286 286 286 286 286 286 286 286 286 287 287 287 287 288 289 289 289 290 290 291 292 293 294 294 295 295 295 295 295 296 296 296 296 296 296 296 296 296 296 296 296 296 296 296 296 295 295 295 295 295 294 294 294 293 293 293
294 294 294 294 295 295 296 295 295 294 293 293 293 293 293 292 292 291 291 290 288 287 286 286 286 286 286 285 286 286 285 285 285 285 285 285 285 285 286 286 286 286 287 287 287 288 288 289 289 289 290 290 290 291 293 294 294 295 295 295 295 295 295 295 295 295 295 295 295 295 295 295 295 295 294 294 294 294 294 294 294 293 293 293 293 292 292
294 294 294 294 294 295 296 296 295 295 295 293 293 293 293 293 293 292 291 290 289 288 287 287 287 286 286 286 286 286 286 285 285 285 285 285 285 286 285 285 286 286 286 286 287 287 287 287 288 288 289 289 289 289 290 291 293 293 294 294 294 294 294 294 294 294 294 294 294 294 294 294 294 294 294 293 293 293 293 293 293 293 292 292 292 292 291
294 294 294 294 294 295 295 296 296 296 295 294 293 292 293 294 294 293 292 291 290 288 288 287 287 287 286 286 286 286 286 286 285 285 285 285 285 285 285 285 285 286 286 286 286 287 287 287 287 287 287 287 288 288 289 289 290 291 292 292 292 292 292 292 292 292 292 292 292 292 292 292 292 292 292 292 292 292 292 291 291 291 291 291 290 290 290
294 294 294 294 294 294 295 295 296 296 295 294 293 292 293 294 294 293 293 292 290 289 289 288 287 287 287 287 286 286 286 286 286 285 285 285 285 285 285 285 285 285 285 286 286 286 286 286 287 287 287 287 287 287 288 288 288 289 289 289 289 289 289 289 289 289 289 289 289 289 289 289 289 290 290 290 290 290 290 290 290 290 290 290 290 291 291
295 294 294 294 294 294 294 295 295 296 295 295 293 292 293 293 293 292 292 292 291 290 289 289 288 287 287 287 287 287 286 286 286 285 285 285 285 285 285 286 286 285 285 285 285 286 286 286 286 286 286 286 287 287 287 287 287 288 288 288 288 288 288 288 288 288 288 288 288 288 288 287 287 288 288 288 289 289 289 289 289 290 290 290 291 291 291
295 294 294 294 294 294 294 295 295 295 295 295 294 293 293 293 293 292 292 292 292 291 290 290 289 289 288 287 287 287 287 286 286 286 285 285 286 286 286 285 286 286 285 286 286 285 285 285 285 285 285 286 286 286 286 286 287 287 287 287 287 287 287 287 287 287 287 287 287 287 287 287 286 286 287 287 287 287 287 287 287 287 288 289 290 290 291
295 295 294 294 294 294 294 295 295 295 295 295 295 294 294 293 293 293 293 292 292 292 291 291 290 290 289 288 287 287 287 286 286 286 286 286 286 286 286 286 286 286 286 286 286 286 286 285 285 285 285 285 285 286 286 286 286 286 286 286 286 286 286 286 286 286 286 286 286 287 287 287 286 286 286 286 286 286 286 286 286 286 287 287 288 289 290
Wind_Speed
6 5 6 5 6 5 5 5 4 4 6 6 6 3 0 3 5 4 4 7 5 1 4 6 6 7 7 9 14 19 22 24 25 25 24 23 21 19 18 17 14 13 12 11 11 9 9 8 7 6 6 5 5 6 6 7 7 7 6 5 6 10 13 17 21 23 26 29 31 33 32 28 26 28 31 30 25 23 25 29 31 31 30 28 25 22 17
7 8 8 6 7 6 6 7 6 5 8 8 6 3 2 5 5 5 9 12 6 1 2 4 5 7 9 14 20 24 25 25 27 29 28 27 26 24 23 22 19 17 15 13 12 10 9 9 8 7 6 5 5 5 5 6 6 7 8 8 6 6 8 11 14 17 20 22 25 28 30 28 26 26 30 31 28 24 25 28 30 31 28 25 25 27 27
4 5 5 5 7 7 6 7 7 6 9 9 6 4 4 7 7 5 10 12 6 2 3 6 7 8 14 20 24 24 24 24 27 29 28 27 26 25 25 24 21 19 17 15 14 13 12 11 10 8 7 6 5 3 4 4 4 5 6 8 8 7 6 7 9 13 16 17 18 20 23 24 24 25 25 25 24 23 24 27 28 28 26 22 20 25 26
1 1 3 6 9 9 6 4 5 6 5 5 4 2 2 3 6 7 7 7 4 2 4 7 8 11 17 20 20 21 23 24 27 28 27 27 26 25 24 23 21 20 18 17 16 15 14 13 11 10 9 7 5 4 3 3 3 3 2 4 6 8 8 8 10 12 13 14 15 18 21 21 21 21 20 19 20 21 22 25 25 23 21 18 17 21 22
4 3 4 5 8 7 2 1 0 2 3 5 5 4 5 3 4 7 5 4 5 4 5 6 7 11 15 16 17 19 21 23 26 27 26 26 25 24 23 22 21 20 19 18 16 15 14 13 12 11 9 7 6 6 5 3 2 2 1 2 3 6 8 9 11 12 12 14 16 19 20 19 18 18 19 20 21 21 20 22 23 21 18 16 18 20 21
5 4 1 3 4 3 2 4 3 3 4 6 7 4 3 4 3 3 4 5 5 5 6 6 7 10 13 17 18 19 20 22 24 24 24 23 22 22 21 21 20 18 17 16 15 14 12 12 11 10 8 8 7 6 5 4 2 2 2 1 0 2 4 7 10 13 13 15 18 19 18 18 16 16 18 22 22 20 19 20 21 18 15 15 17 18 19
5 2 3 4 2 4 3 5 2 4 6 8 11 7 4 5 5 5 8 7 7 8 10 13 16 18 19 20 20 20 20 20 21 21 21 20 20 19 20 20 19 18 17 15 14 13 12 10 9 7 6 6 6 4 4 4 3 2 2 2 3 3 3 5 7 11 13 14 16 17 18 18 16 15 18 21 20 18 18 18 17 16 15 15 16 17 17
3 3 3 4 4 4 3 4 3 5 5 5 8 7 4 4 4 3 6 6 5 8 11 13 16 18 18 19 19 17 17 17 18 18 18 18 18 18 18 18 18 18 18 17 16 15 15 13 11 9 7 6 5 3 3 3 2 1 2 3 4 4 4 5 6 8 10 13 15 17 18 18 17 17 19 20 18 16 16 15 15 15 15 16 16 16 16
4 4 2 1 2 3 1 1 1 2 1 0 3 4 0 2 3 2 5 4 4 6 7 9 11 9 7 11 13 13 13 13 14 14 14 15 15 16 16 16 16 16 16 17 17 16 16 16 14 13 11 10 9 7 4 2 2 1 2 3 4 4 4 4 5 5 5 7 11 14 17 17 18 18 18 17 16 16 16 17 17 16 16 17 17 16 15
3 5 3 2 3 2 4 4 3 2 3 2 4 5 1 2 2 2 5 4 3 4 6 5 10 8 2 2 4 8 10 10 11 11 12 13 14 15 16 16 17 17 17 18 18 18 18 18 17 16 14 13 12 11 9 7 5 4 3 3 3 4 4 5 5 5 5 4 4 6 8 10 12 14 14 15 15 16 17 17 18 17 17 18 17 15 14
3 5 4 3 3 3 4 5 4 5 4 3 4 5 1 2 2 3 6 6 4 4 7 6 7 6 2 3 2 6 8 8 10 11 12 13 14 16 17 18 19 20 21 21 21 21 22 21 20 19 18 17 15 14 13 11 9 7 4 3 2 2 4 4 4 5 5 5 5 6 6 7 9 11 12 13 14 15 16 17 17 18 17 16 16 14 13
2 4 3 2 3 2 2 4 6 7 2 3 5 2 5 3 3 5 6 7 6 5 7 6 5 4 2 3 3 6 7 8 10 11 12 14 15 17 18 19 21 22 23 23 24 24 24 25 24 23 23 22 20 18 16 14 13 11 7 6 5 5 5 5 5 6 6 6 8 8 6 5 7 9 10 12 14 14 15 16 16 16 16 16 15 14 12
2 3 3 0 2 3 2 3 6 5 4 5 3 4 6 3 6 7 7 8 7 6 6 5 4 3 1 1 5 8 10 11 11 12 13 14 15 17 19 20 21 22 23 24 25 25 25 25 24 24 23 24 23 21 19 17 15 14 12 11 11 11 9 7 6 8 9 8 8 10 10 9 9 9 11 13 14 13 13 13 15 16 16 16 15 12 10
2 3 3 1 2 2 3 4 5 4 5 4 3 5 6 6 8 7 6 5 4 5 5 5 3 2 3 5 8 10 12 14 15 16 17 18 18 19 20 21 21 22 24 24 25 26 25 25 24 23 23 23 23 23 23 21 18 17 17 16 16 16 15 13 11 10 11 11 10 10 12 13 13 13 14 14 13 12 11 12 14 15 15 15 13 11 9
2 3 3 2 2 4 7 5 3 3 2 6 8 10 8 6 6 5 4 3 3 4 4 5 4 5 7 8 10 12 14 15 17 18 19 20 21 21 22 23 24 25 26 26 27 27 27 26 25 24 24 24 24 24 24 23 21 20 20 19 19 20 20 20 19 15 14 14 13 13 13 14 15 16 16 15 13 12 11 12 13 13 13 13 12 10 9
2 2 1 2 3 5 8 5 4 4 8 12 13 11 8 6 4 2 3 4 5 6 7 8 9 10 11 11 12 14 15 16 18 19 20 22 23 23 24 25 25 27 28 29 30 30 30 29 27 26 26 26 27 26 25 24 23 24 24 23 23 22 22 23 23 22 19 17 17 16 15 16 17 17 17 16 16 15 15 14 14 14 13 13 12 12 11
2 2 2 4 2 4 10 15 14 12 13 12 9 8 6 4 1 2 3 4 5 7 9 10 12 13 14 14 15 17 17 18 19 20 22 23 25 27 28 28 28 29 30 31 32 33 32 31 30 29 28 28 29 29 27 26 26 27 27 27 26 25 24 24 24 24 24 23 22 20 18 17 17 18 17 15 15 16 17 18 17 16 16 16 16 15 14
3 5 5 4 5 7 12 14 13 12 11 7 5 4 3 1 2 3 3 4 5 6 8 10 12 14 16 17 18 19 19 20 21 22 25 26 28 29 30 30 29 29 29 30 31 32 33 32 32 32 31 30 31 31 29 28 28 28 28 30 30 28 27 25 25 25 25 25 25 25 24 22 20 19 19 17 16 16 17 19 20 20 20 19 18 17 16
3 2 1 2 4 7 9 9 9 8 6 5 5 4 2 3 3 4 4 4 5 6 8 10 12 14 16 17 18 20 21 23 24 26 28 29 29 28 28 28 29 29 30 30 31 32 32 32 31 32 32 32 32 32 31 30 29 29 30 31 31 31 30 27 25 24 24 25 26 27 29 29 27 24 22 21 20 20 19 20 21 22 22 22 21 19 17
1 2 4 5 5 5 6 7 8 7 6 6 5 4 3 3 3 4 5 5 6 8 9 10 12 13 15 16 19 21 23 24 25 26 27 27 28 28 28 28 29 29 30 31 32 33 34 33 33 33 34 34 34 34 34 33 31 31 31 32 31 32 31 30 28 24 23 23 25 26 29 31 31 29 27 26 25 25 25 25 24 24 25 24 22 20 17
2 1 3 4 2 2 6 8 8 7 6 6 5 4 4 4 4 5 6 7 8 9 10 10 11 13 14 16 18 21 22 23 23 24 25 27 28 28 29 29 30 30 31 31 32 33 33 33 33 33 34 35 35 36 36 35 33 32 32 32 32 32 32 31 31 29 25 23 22 23 26 29 30 31 30 29 27 25 25 25 24 23 23 23 21 18 17
1 2 7 10 4 2 8 12 10 7 7 6 5 5 5 5 6 7 8 8 9 9 9 10 11 13 15 16 17 20 21 22 23 25 26 28 29 30 30 30 29 29 29 29 30 31 31 31 30 31 31 32 32 33 34 34 34 33 33 32 32 33 33 32 31 31 29 27 24 22 21 23 26 29 30 30 28 25 23 24 24 22 21 21 19 18 18
3 5 13 17 7 1 5 10 7 6 6 6 5 6 6 7 7 7 7 8 9 9 10 10 12 13 15 17 19 21 22 23 24 25 27 29 31 31 29 27 27 26 25 26 27 29 29 29 29 29 30 30 29 30 30 30 31 32 33 33 33 33 33 32 31 31 30 29 26 23 20 17 18 21 24 28 29 26 23 23 23 21 19 18 17 18 18
2 5 13 14 6 1 4 6 5 5 6 6 6 6 6 7 7 6 6 8 9 9 9 10 12 14 17 19 21 22 22 22 23 25 27 29 29 28 26 24 24 23 23 23 25 26 27 27 28 29 30 30 30 29 29 28 28 29 30 32 33 34 33 32 31 30 30 30 27 25 23 21 19 17 18 21 25 27 26 25 25 24 22 20 19 19 18
2 4 8 7 4 3 4 4 4 5 6 6 6 6 5 5 5 5 6 7 7 7 10 12 14 16 19 20 19 19 20 22 23 25 28 28 25 23 22 20 19 20 20 21 22 23 24 25 26 27 28 27 26 25 25 24 24 26 28 30 32 33 33 33 32 31 30 31 29 27 25 25 24 22 19 17 18 22 24 24 25 27 26 24 22 20 17
2 3 4 3 3 3 3 3 3 4 5 5 4 4 4 4 4 5 5 5 6 7 11 13 14 16 17 17 17 18 19 21 23 25 26 24 21 19 17 16 17 18 19 19 20 21 23 23 24 25 25 25 24 23 22 22 22 24 26 27 30 31 32 32 33 33 32 31 30 28 26 25 25 26 24 20 17 16 15 14 17 22 24 23 21 18 16
3 4 4 3 3 4 4 4 3 3 4 4 3 3 3 4 4 4 4 4 5 8 10 11 13 14 15 15 16 17 19 21 23 24 22 19 17 15 14 15 17 17 18 19 19 20 22 23 24 25 26 26 25 23 22 21 22 24 25 26 28 30 30 31 32 35 35 34 32 30 27 25 25 26 26 25 23 20 15 12 15 19 21 19 17 16 15
5 5 4 3 3 4 4 4 4 4 3 2 2 3 3 4 3 3 4 5 6 8 10 11 12 14 16 17 17 18 19 21 22 21 17 14 13 12 13 15 16 16 17 18 19 20 23 25 26 27 28 27 25 23 23 22 23 24 26 26 27 28 28 29 30 32 34 35 35 32 29 26 25 24 22 22 24 23 20 18 19 20 20 20 18 16 15
7 6 5 4 4 5 5 5 4 4 3 2 3 3 4 3 3 4 5 5 7 9 11 12 12 14 17 20 19 19 20 21 20 16 13 11 11 11 13 13 13 14 15 17 19 21 24 27 29 30 29 26 24 23 23 23 23 24 25 26 26 26 26 25 26 27 30 33 34 34 31 28 25 23 21 19 19 20 21 23 23 21 20 19 17 15 15
9 8 6 5 5 5 6 5 4 4 4 3 3 3 4 4 5 5 5 6 8 10 12 13 13 15 18 20 20 19 20 20 16 12 11 11 10 10 10 11 12 14 16 19 20 22 25 29 32 31 28 26 24 23 22 21 21 22 24 25 26 27 26 24 21 21 23 27 30 32 32 30 27 25 24 22 21 20 21 23 24 23 21 18 15 14 15
8 8 7 6 6 6 5 5 4 4 5 4 3 3 3 4 5 6 7 8 10 11 12 13 14 16 18 20 20 20 19 16 12 11 11 10 9 8 8 10 13 15 18 20 21 22 26 31 35 33 28 25 23 20 18 17 16 17 20 22 23 25 25 24 22 19 18 19 23 28 31 32 30 28 26 26 25 22 20 21 22 23 20 17 14 14 15
6 7 7 7 7 6 6 5 4 5 5 4 3 2 2 4 7 9 11 11 11 12 12 13 15 17 19 20 19 18 15 12 12 12 11 8 6 6 7 9 12 15 17 20 22 23 26 32 36 34 28 24 21 18 16 16 15 14 14 16 18 20 21 21 21 20 18 16 18 22 27 31 32 30 27 27 27 26 24 23 22 22 20 16 14 14 14
6 6 7 7 7 7 7 6 5 5 5 4 3 3 4 6 9 11 12 12 12 13 12 13 15 18 19 19 18 16 13 11 11 11 8 6 5 5 7 9 13 14 16 19 21 22 24 28 34 34 30 24 21 18 17 17 17 15 13 12 12 14 17 18 18 18 18 17 16 17 21 28 31 30 29 28 28 29 27 25 24 25 22 17 14 13 13
5 5 7 7 6 6 7 6 5 4 3 3 3 3 6 8 10 11 12 12 13 13 12 13 15 17 17 17 16 13 10 10 11 10 8 7 6 6 8 11 13 13 14 17 21 22 23 25 31 34 33 27 23 21 20 19 19 16 12 8 5 4 8 12 13 13 15 15 14 14 18 24 28 28 28 27 28 28 27 27 28 27 22 17 14 14 15
3 5 7 6 5 4 4 5 5 3 3 2 2 4 6 8 9 11 11 12 13 13 12 12 14 16 15 14 12 10 8 9 9 8 7 7 7 7 9 11 11 10 12 16 20 23 25 26 28 32 34 32 28 25 22 21 21 20 17 11 8 7 3 3 7 9 11 12 12 12 15 21 25 26 25 25 24 22 21 26 31 28 21 17 18 18 18
4 6 6 5 3 3 5 6 5 3 3 4 5 6 7 8 9 11 12 12 13 13 12 11 13 14 14 12 10 8 7 6 5 5 5 5 6 8 9 9 8 9 11 15 18 21 24 27 28 30 32 34 33 29 24 21 20 21 22 19 16 14 12 10 9 8 8 9 9 10 13 17 20 21 21 21 19 15 15 23 31 29 22 19 21 22 21
4 6 6 4 4 5 6 5 4 4 5 5 6 6 6 8 10 12 12 13 13 12 11 10 11 12 13 12 9 7 6 6 5 5 5 6 7 7 7 6 6 8 12 15 18 20 22 24 27 28 29 31 33 32 28 24 20 19 20 21 20 18 16 15 14 12 11 10 9 10 11 13 15 17 17 17 16 13 13 19 25 25 22 21 22 23 22
4 6 5 4 5 6 6 5 5 6 5 5 5 6 7 9 10 12 13 14 14 12 10 9 10 11 12 11 9 7 6 6 6 7 7 8 9 9 9 9 9 10 13 15 17 19 20 21 23 25 27 29 31 32 30 28 24 21 19 19 19 18 16 15 14 12 11 10 9 9 10 11 12 14 14 14 14 12 12 16 20 22 22 23 22 22 20
4 5 6 5 6 7 6 6 7 6 5 5 5 7 8 10 10 12 13 14 13 10 8 8 9 10 10 9 8 7 5 6 7 7 8 9 10 10 11 11 11 12 13 14 14 16 18 18 19 22 25 27 28 29 28 28 27 27 25 24 22 21 19 17 14 12 11 10 9 9 9 10 11 12 12 12 12 13 15 19 21 22 21 20 19 19 18
6 5 6 6 6 7 7 7 8 7 6 5 6 7 8 8 9 10 12 13 12 9 6 7 8 9 8 7 7 7 6 6 6 7 7 7 8 8 8 10 11 11 12 12 13 14 15 15 17 19 21 23 25 26 25 25 25 27 28 29 29 28 26 24 22 19 17 15 14 13 11 11 12 13 13 14 16 18 20 22 22 20 18 18 18 18 16
9 6 6 7 7 7 8 9 10 8 6 5 6 7 7 7 7 9 11 13 11 8 5 5 7 8 7 6 6 6 6 6 6 6 6 6 6 7 8 10 12 12 13 13 13 13 13 13 15 17 19 21 22 22 22 22 22 23 25 27 28 29 29 28 27 25 23 21 20 20 19 18 18 19 19 20 21 21 22 21 19 18 17 17 17 15 12
12 9 8 8 8 8 9 11 11 10 7 5 6 7 7 6 7 9 10 12 11 7 5 5 6 6 6 5 4 4 5 5 5 5 5 5 6 8 9 10 11 12 13 13 13 12 12 13 14 16 18 19 19 19 19 19 20 20 21 22 23 24 25 25 25 24 24 23 23 22 21 21 21 21 21 21 21 20 19 17 16 15 15 14 13 12 11
14 12 10 9 9 8 9 11 12 11 8 6 6 7 7 6 6 8 9 11 10 8 5 5 5 6 6 6 5 4 4 5 5 5 5 6 7 8 9 9 10 11 12 12 12 12 13 13 15 16 17 17 17 16 16 16 17 17 17 18 19 19 20 20 20 20 19 19 19 19 18 18 18 18 17 17 16 16 15 14 12 12 11 11 10 10 9
14 13 11 9 9 9 9 11 12 12 9 7 5 6 8 7 6 7 8 9 9 7 5 5 5 6 7 7 6 6 5 5 5 5 5 6 6 7 7 8 9 10 11 11 11 11 12 13 15 15 16 16 15 15 15 16 15 15 14 15 16 17 18 18 18 17 17 17 16 16 14 14 14 14 13 13 12 12 11 11 10 9 9 8 7 7 6
14 13 11 9 9 10 10 12 13 12 11 9 7 7 7 8 7 6 7 8 8 7 5 4 5 5 6 7 7 6 6 5 5 6 5 5 5 6 7 8 9 9 10 11 10 11 12 13 14 14 14 14 14 14 15 16 16 15 14 14 14 14 15 16 16 16 16 16 15 14 13 13 12 11 11 10 10 10 9 8 8 7 6 5 5 4 4
12 11 11 10 11 10 10 11 12 12 12 12 11 9 8 8 8 8 7 7 7 6 5 4 4 4 5 5 5 5 5 5 5 5 5 5 6 7 9 10 10 10 10 10 10 10 11 12 12 13 13 13 13 14 14 15 15 15 14 14 13 13 13 13 13 13 13 12 12 11 11 10 10 9 9 8 7 7 6 6 5 5 5 5 5 5 5
11 11 11 12 12 11 11 11 12 12 13 14 13 11 9 8 8 9 8 7 6 5 4 3 3 3 3 4 4 4 3 4 4 4 4 5 7 8 9 10 10 10 10 10 10 11 11 12 12 12 12 12 12 12 13 13 13 13 13 13 13 12 12 11 10 10 9 9 8 8 7 7 7 7 7 6 6 5 5 5 5 5 5 6 6 6 7
13 13 13 12 12 12 13 13 14 14 16 16 15 13 11 9 9 9 10 9 7 5 3 3 3 3 2 3 3 3 2 2 3 4 5 5 7 8 9 9 10 10 10 11 11 11 11 11 12 12 12 11 11 11 12 12 12 12 12 12 11 11 10 10 10 9 8 7 6 5 5 4 4 4 4 4 5 5 5 5 5 6 6 6 6 6 7
16 16 15 14 13 13 14 15 16 16 16 17 16 15 13 11 10 10 10 10 9 6 4 4 3 2 2 2 2 2 2 2 3 4 4 4 5 7 8 9 10 10 10 10 10 10 11 11 11 11 11 11 11 11 11 11 11 11 12 12 12 12 12 12 12 11 10 10 9 8 7 7 6 5 4 4 4 5 5 5 5 5 4 4 3 3 3
20 18 17 16 15 15 15 17 17 16 16 17 17 16 15 13 12 11 10 10 10 9 6 5 3 2 2 2 2 1 1 2 2 3 3 3 4 5 7 8 9 10 10 10 11 11 11 11 10 11 11 11 11 11 11 11 10 11 11 12 12 13 14 13 13 13 12 12 12 12 11 11 10 10 10 9 9 10 10 10 9 9 8 8 7 7 6
20 21 20 18 16 15 15 15 16 15 14 15 17 18 17 15 13 12 11 11 11 10 8 6 4 3 2 2 2 1 0 1 1 1 2 2 3 4 6 7 8 9 10 10 10 11 11 11 11 11 11 10 10 11 11 10 10 10 10 11 11 12 12 12 12 12 13 13 13 13 14 14 14 14 14 14 14 14 13 12 12 12 12 11 11 11 10
17 20 21 20 17 15 14 14 14 14 13 15 17 18 19 17 15 14 13 13 13 12 11 9 6 4 3 2 3 3 2 1 1 1 1 1 2 3 4 5 7 8 8 9 9 10 10 10 11 11 11 11 11 10 10 10 10 9 10 10 10 10 11 11 11 11 11 12 12 13 14 14 14 15 15 16 16 15 15 15 15 15 14 14 14 14 13
Wind_Direction
29 21 0 21 73 74 35 31 47 58 48 53 87 106 278 117 131 185 169 102 92 353 330 339 345 1 18 36 51 61 67 72 79 82 80 77 76 75 76 75 75 77 77 78 80 83 82 78 72 59 47 34 25 18 8 2 360 354 336 300 270 257 251 245 239 236 236 237 237 236 237 242 244 240 235 235 238 247 249 245 243 240 235 233 229 224 235
31 21 10 26 66 75 43 19 10 61 78 74 76 76 49 74 91 130 119 101 87 1 332 350 7 31 54 65 66 66 67 70 75 77 75 72 71 71 72 72 73 74 75 76 77 78 78 76 73 68 61 47 31 19 11 5 356 348 339 329 314 284 262 253 248 244 242 241 241 241 240 241 244 242 235 231 232 239 247 250 251 250 246 244 239 233 237
28 16 32 52 72 85 71 31 6 31 73 74 65 70 82 79 76 88 103 101 89 30 34 44 50 64 69 66 63 62 63 66 70 71 69 67 67 68 70 71 73 75 76 75 74 72 71 71 72 73 69 59 51 41 35 31 18 2 340 326 320 312 302 288 272 260 252 247 246 245 239 234 238 238 230 227 231 238 246 251 253 257 260 257 243 231 229
164 190 121 115 100 90 78 48 9 10 52 77 70 50 55 101 132 127 104 103 124 128 84 72 66 68 67 63 60 62 63 64 66 66 65 64 65 65 65 67 68 69 70 69 67 66 66 67 71 74 73 72 72 61 53 53 46 37 354 310 297 291 291 290 283 277 268 258 245 233 227 226 230 231 226 227 236 245 250 249 247 252 259 250 226 216 221
169 197 170 134 103 92 81 284 17 62 100 113 96 43 12 29 139 148 143 156 169 150 117 98 72 64 64 62 60 62 65 66 66 65 64 63 62 61 59 59 59 58 58 57 57 58 60 62 62 64 67 76 78 67 61 59 57 63 38 303 271 260 262 262 263 265 263 258 250 237 230 232 233 233 233 237 242 247 249 246 247 252 249 232 220 221 231
161 200 214 64 87 139 233 279 253 177 145 126 112 85 8 16 61 129 131 129 130 122 119 113 97 84 77 72 70 68 67 66 65 63 60 58 56 55 52 50 49 47 44 44 44 44 47 51 51 54 63 70 71 68 66 67 73 88 92 72 169 221 232 235 242 249 251 253 253 246 242 246 243 232 232 238 242 246 245 242 244 243 231 220 223 230 236
145 160 69 84 190 234 287 318 311 128 122 116 109 95 42 34 55 89 101 107 124 130 127 119 108 98 86 77 73 68 64 62 60 58 55 51 48 45 42 39 37 34 31 28 26 22 20 19 20 27 43 55 60 65 63 63 73 91 109 124 125 135 166 191 219 241 248 250 247 240 240 246 240 224 227 236 238 236 234 230 229 225 220 219 220 221 223
138 116 97 154 224 277 357 10 38 97 102 95 90 77 27 12 29 81 104 106 124 136 139 133 120 106 89 76 68 61 58 55 52 50 46 42 38 34 31 28 25 22 19 15 13 10 6 0 354 352 357 2 5 21 44 49 52 78 134 160 153 143 153 172 192 221 240 245 242 237 238 243 238 228 228 229 224 217 212 207 208 210 211 210 206 206 205
134 121 124 149 354 352 66 85 2 96 70 338 114 111 143 331 7 95 123 109 111 130 144 160 163 150 100 70 59 52 50 46 42 38 31 25 20 16 11 8 7 5 1 358 357 356 356 353 346 341 340 336 330 325 325 337 343 314 261 214 194 182 167 163 168 180 210 232 235 234 237 240 235 227 220 211 205 202 198 196 199 202 201 198 195 195 194
106 102 92 44 22 293 219 211 237 23 24 235 160 116 104 303 5 118 137 120 109 101 92 139 172 171 137 50 36 36 36 31 23 18 10 4 359 354 350 345 343 343 341 341 341 339 338 337 335 334 332 329 325 318 310 307 313 307 280 248 232 217 183 150 142 144 145 155 185 201 210 213 208 203 200 198 196 195 195 197 197 194 191 190 189 189 191
107 111 125 157 187 231 225 218 262 346 352 220 135 84 261 237 102 133 142 121 112 91 72 92 134 130 126 237 289 10 13 8 4 357 348 345 341 337 334 332 330 328 327 326 326 325 324 322 321 321 320 320 320 317 310 302 300 297 277 244 246 233 200 186 183 175 163 166 171 159 154 171 180 181 185 187 186 184 186 188 187 186 186 188 191 193 195
120 117 134 186 206 238 230 231 289 330 323 161 106 93 247 231 124 147 144 117 107 96 79 75 89 102 149 226 301 347 346 346 348 342 335 334 331 327 325 324 323 320 317 316 315 315 315 314 312 311 310 308 307 307 306 299 292 288 273 238 218 205 194 198 217 216 207 207 204 191 179 183 189 194 197 193 189 186 184 183 183 184 185 188 191 191 189
73 102 115 343 260 249 244 279 321 1 117 139 136 208 220 161 129 146 134 114 102 80 68 67 72 95 136 302 323 329 331 331 330 327 325 322 320 319 318 316 313 310 306 306 305 304 305 304 303 303 301 298 296 294 293 291 288 285 274 254 236 224 209 201 212 219 217 219 220 213 207 201 198 204 205 199 198 197 190 188 192 190 187 186 185 182 180
50 110 112 45 267 275 332 331 336 42 118 170 212 186 159 129 126 129 115 109 97 64 54 56 57 33 346 334 325 324 326 324 322 320 318 314 311 309 308 307 305 301 297 296 295 294 294 295 295 295 293 290 288 285 281 279 279 279 275 266 256 248 240 234 231 223 215 214 215 217 218 216 212 209 203 200 204 207 199 194 195 192 187 184 181 180 185
70 80 66 88 198 307 346 346 320 6 114 167 157 136 130 127 116 97 69 47 28 11 1 0 351 335 333 330 321 320 318 316 317 316 314 313 310 306 304 303 303 301 298 295 292 291 291 290 290 290 288 285 283 279 275 271 268 267 268 267 261 256 252 249 245 236 224 215 208 207 214 219 219 215 211 208 211 215 212 208 205 201 197 195 197 203 213
105 124 110 158 207 312 0 62 116 93 113 134 133 124 126 130 113 64 358 342 338 332 329 330 326 323 326 323 318 317 317 316 316 314 313 313 310 307 304 302 301 301 298 295 293 290 290 290 289 287 285 283 280 277 274 272 265 260 260 261 260 257 253 251 249 245 240 233 223 213 211 212 212 211 209 210 214 220 222 221 220 218 217 220 226 232 239
90 114 132 137 131 39 67 95 111 114 118 124 122 117 119 122 136 292 304 305 306 312 315 314 317 320 321 320 318 317 317 317 317 316 314 313 310 308 306 303 302 299 296 293 291 288 288 289 290 288 285 282 279 276 274 273 269 265 261 258 258 257 254 251 250 249 248 245 238 230 223 217 212 208 206 208 213 218 221 223 227 231 234 238 240 242 244
77 59 76 109 108 93 97 106 114 120 126 133 133 127 131 183 225 236 254 267 279 295 303 306 313 317 315 315 315 314 314 315 315 314 313 311 310 309 308 307 305 302 297 293 290 287 285 283 284 284 285 284 282 279 276 271 267 265 264 260 258 257 256 254 251 249 249 248 244 239 234 230 224 218 214 213 212 212 215 221 229 234 236 236 236 235 235
108 77 149 171 137 126 126 130 136 138 142 155 159 162 195 211 205 220 240 254 272 290 300 304 308 310 310 311 312 312 313 313 313 312 312 311 312 312 312 312 310 306 302 298 294 291 287 284 281 281 281 282 282 282 280 275 268 263 261 261 258 256 254 254 253 251 248 247 246 244 241 239 236 230 224 223 223 223 224 228 231 232 232 230 229 229 232
92 188 196 184 164 165 164 158 161 166 169 178 188 198 221 232 236 246 255 266 281 292 299 303 305 307 308 310 310 310 310 310 311 313 314 314 315 314 313 312 310 307 304 301 298 295 291 289 286 283 280 279 279 279 278 277 272 265 259 258 259 257 253 250 250 250 248 247 247 247 244 243 242 237 232 229 230 232 236 238 236 234 232 229 228 231 236
69 89 161 156 147 240 215 194 186 186 187 197 215 228 245 260 262 265 272 279 287 296 302 304 306 306 306 307 308 308 309 311 313 316 317 318 317 315 313 311 309 307 305 302 299 296 294 293 291 286 283 280 278 276 276 276 275 271 263 258 256 256 254 250 247 247 247 247 248 247 245 244 245 245 243 240 237 234 234 234 234 235 236 234 233 237 243
156 232 181 169 152 279 221 205 199 198 203 214 229 239 256 274 276 277 282 286 293 301 305 305 305 304 305 308 310 310 311 313 315 316 318 318 317 316 315 312 310 308 307 305 303 300 299 300 298 294 290 286 282 278 276 274 274 273 269 263 256 253 252 250 247 245 245 246 248 250 250 249 248 247 247 246 243 239 235 234 236 236 236 238 240 242 240
211 209 184 181 176 38 205 201 201 205 216 231 245 256 272 281 280 282 289 296 302 307 308 309 310 310 312 315 315 312 311 311 312 314 316 317 317 318 317 315 314 314 313 311 308 306 305 305 303 299 296 292 288 285 280 275 272 270 268 265 260 254 251 249 248 246 245 245 246 249 251 250 248 246 244 242 240 241 241 238 232 225 224 232 240 238 230
131 162 177 187 195 128 169 193 208 219 227 237 248 260 267 267 271 282 292 296 299 302 305 312 317 316 314 314 312 309 308 309 311 314 317 317 317 317 318 318 319 320 320 319 317 316 314 312 309 305 301 298 294 290 286 281 274 268 266 264 261 257 252 248 246 245 245 244 244 245 245 243 243 247 248 240 232 231 231 230 229 230 232 233 231 225 221
87 155 171 181 189 173 177 197 219 227 231 241 257 266 260 255 267 281 284 285 292 303 313 318 318 314 312 311 309 306 305 307 311 315 317 317 318 319 321 322 323 324 326 327 325 322 319 316 312 309 307 308 306 301 295 289 279 270 264 261 259 257 253 248 244 242 242 242 242 241 242 243 244 247 250 245 234 228 226 224 227 231 228 217 209 208 210
134 169 180 185 198 207 214 227 235 235 244 262 273 261 244 252 275 282 283 289 303 317 321 319 317 317 317 314 310 305 303 305 310 315 317 320 323 324 323 325 330 334 333 330 325 321 318 316 313 311 311 313 314 309 301 293 285 275 266 260 257 256 253 249 243 239 237 238 239 238 238 240 241 242 243 244 244 241 235 227 222 218 210 200 197 200 205
202 209 215 217 230 241 242 249 260 262 268 276 262 232 244 268 276 283 300 314 321 327 328 325 325 330 330 322 311 304 304 307 313 318 322 325 326 326 329 338 343 340 331 326 325 325 325 323 319 317 316 317 315 310 302 293 285 278 272 266 260 256 253 249 244 238 235 234 235 235 234 234 235 238 239 239 239 239 239 235 224 211 201 197 200 204 207
226 236 244 250 267 270 261 262 269 270 269 257 226 233 270 277 270 288 307 310 313 322 330 333 333 336 338 332 319 310 311 315 319 324 329 328 327 334 347 353 347 336 328 330 334 334 331 328 324 322 321 319 314 307 300 293 285 279 275 272 267 261 256 252 247 241 235 232 231 232 232 231 231 233 232 232 234 236 237 237 230 217 205 201 203 205 209
235 242 253 264 280 283 272 263 263 263 254 233 235 262 280 281 287 301 301 303 308 313 324 333 331 329 334 334 325 318 319 322 326 332 333 329 336 353 1 355 343 336 338 342 342 338 335 333 332 331 329 325 317 309 301 294 286 280 275 272 270 267 262 256 252 247 240 235 231 230 230 229 228 226 219 215 219 224 225 224 222 217 210 206 205 207 213
237 238 250 266 283 282 265 251 256 261 246 240 265 284 281 289 308 311 307 312 311 308 317 329 328 323 329 331 327 325 326 328 332 337 331 331 348 5 3 350 343 342 344 345 343 342 342 343 343 342 340 333 324 317 309 299 289 282 276 270 267 266 263 259 255 251 245 239 234 230 228 225 223 219 214 209 209 213 219 221 215 206 203 206 210 215 218
239 242 253 270 284 280 258 246 257 254 239 249 287 296 280 299 317 318 318 322 318 312 317 322 319 321 329 330 328 328 332 335 337 330 324 333 354 7 0 350 342 339 342 346 345 345 348 350 351 350 346 339 334 332 328 319 305 290 280 273 267 263 261 257 252 250 248 244 237 230 226 223 220 216 214 212 210 211 219 223 215 204 201 207 212 215 217
249 249 260 277 286 275 249 240 248 241 235 255 280 277 278 306 314 315 317 320 318 314 313 313 315 323 331 331 329 332 337 340 335 325 323 336 354 357 354 347 337 336 343 349 349 349 352 355 357 356 353 349 350 355 356 349 338 320 301 286 272 263 258 253 246 242 242 245 241 232 223 219 218 217 215 212 211 211 214 215 212 208 208 212 214 212 212
253 255 272 287 287 267 246 240 241 235 239 259 271 277 302 314 315 314 315 317 316 314 311 310 318 328 331 331 332 337 340 339 334 330 332 341 344 345 349 343 338 343 351 354 356 357 357 359 3 5 3 2 5 10 9 2 354 343 327 309 286 264 253 246 239 235 233 234 238 236 223 213 212 214 214 212 211 212 214 214 214 211 208 206 208 207 201
256 275 293 299 292 268 249 237 226 219 223 235 254 291 308 310 311 313 315 318 320 317 313 316 326 332 333 333 338 343 343 341 344 352 357 352 341 345 349 342 341 351 359 2 8 12 9 7 10 13 13 14 17 19 18 14 10 4 351 336 325 281 253 242 233 230 226 222 226 230 218 205 203 207 211 212 213 216 220 220 216 209 201 195 195 194 189
271 293 300 300 292 265 217 189 179 178 187 218 267 306 312 310 315 321 325 326 325 320 316 323 331 335 336 339 346 352 347 341 349 3 5 351 342 350 351 344 346 2 12 13 18 22 20 17 16 17 18 21 22 23 24 24 24 24 22 26 47 62 69 192 197 201 208 209 212 214 205 196 194 198 203 208 214 222 228 222 212 202 193 190 188 182 176
288 298 298 288 260 210 176 170 180 203 227 256 289 311 315 318 326 332 332 331 330 325 321 326 331 336 342 351 358 1 360 358 5 15 11 358 358 7 4 355 359 18 25 23 23 23 21 22 22 21 21 24 26 26 28 31 34 35 36 41 55 68 79 98 126 149 168 178 183 183 181 183 189 195 199 205 212 223 229 217 204 193 185 184 181 172 166
295 303 299 269 223 201 185 184 209 239 250 262 283 301 310 318 329 335 336 337 336 330 325 327 332 337 347 360 7 9 14 25 33 29 23 22 23 24 23 20 22 28 29 28 25 19 17 20 24 25 25 27 29 31 32 36 42 46 45 47 55 67 79 92 104 117 128 135 140 148 157 168 180 187 192 201 211 217 214 204 193 182 174 172 170 166 165
307 313 302 264 221 210 207 215 236 250 251 253 267 288 304 314 325 334 338 339 338 331 323 324 331 336 345 359 10 14 19 29 34 29 23 23 25 28 32 33 30 25 23 23 21 16 14 17 23 28 31 32 33 34 36 40 46 52 53 52 56 65 77 90 102 112 117 118 118 125 139 154 165 174 184 197 205 204 192 180 172 166 162 162 164 167 169
293 309 303 269 229 219 224 231 236 238 237 242 265 290 303 309 319 331 338 339 339 332 322 320 330 335 341 353 5 11 16 28 32 28 20 18 18 20 25 29 28 22 17 14 14 16 16 16 20 27 32 33 34 35 38 42 48 54 59 61 63 67 72 81 90 99 105 109 112 118 134 151 160 166 175 183 184 178 167 161 158 159 160 161 164 166 166
269 293 301 283 251 235 232 224 215 212 220 245 277 296 304 308 317 330 338 341 340 335 322 320 330 335 339 348 360 7 10 13 16 14 11 11 13 17 25 32 33 28 21 17 16 16 16 18 22 27 29 29 30 33 36 41 47 53 60 64 67 69 71 74 79 84 90 97 104 109 117 130 139 144 146 148 152 154 154 154 155 158 159 159 160 160 159
261 271 285 281 264 246 234 221 212 210 219 247 278 293 300 310 323 332 339 343 343 339 335 335 337 339 341 345 352 2 6 3 358 356 355 358 9 23 32 36 35 32 28 24 21 18 18 22 29 31 30 27 26 28 32 40 46 51 56 61 65 69 72 74 77 81 85 90 96 102 107 111 118 124 129 135 142 148 150 152 152 152 151 153 155 159 164
260 260 268 274 268 253 237 225 217 214 220 241 271 285 291 305 325 335 343 347 345 341 344 353 352 352 353 347 340 348 357 352 344 344 349 359 12 22 29 33 33 31 29 25 24 24 27 31 36 37 35 32 27 26 31 40 47 51 55 59 62 66 69 73 77 81 85 89 94 99 105 111 118 123 129 135 140 143 143 143 144 145 148 154 161 168 175
262 258 262 269 268 256 242 229 222 221 225 238 266 282 287 297 319 337 347 351 348 344 350 359 1 3 6 1 350 348 348 344 340 342 351 3 10 13 18 28 32 31 29 25 22 24 30 37 40 41 40 36 31 29 34 44 52 57 60 62 64 66 68 70 73 78 81 85 89 94 100 107 114 119 123 127 130 134 137 141 145 149 153 158 163 167 171
265 259 257 262 264 257 243 231 226 227 228 233 257 279 283 286 300 324 343 350 348 346 351 357 359 4 8 8 5 2 358 357 359 358 360 4 5 5 12 26 32 32 32 29 25 24 31 37 41 42 42 40 37 37 41 47 54 61 65 68 70 72 74 74 76 77 78 79 83 87 92 98 105 110 114 115 117 123 130 135 138 142 143 146 151 157 168
263 257 252 255 260 255 243 234 230 231 233 238 251 271 281 281 283 298 326 343 345 345 350 355 357 3 8 9 10 11 11 12 16 19 19 19 17 19 27 34 36 36 37 34 30 30 35 38 41 43 44 43 42 44 48 51 54 59 65 68 70 72 75 77 78 79 80 81 83 85 88 91 95 98 99 100 103 109 115 121 127 132 136 143 157 174 192
259 259 254 251 252 250 244 238 233 232 235 241 246 254 267 277 278 281 297 321 333 337 344 352 355 359 3 3 2 6 13 21 27 31 33 37 42 43 41 39 36 36 38 37 36 39 41 41 40 42 44 44 44 46 50 52 53 57 61 65 66 66 68 70 71 73 77 80 82 85 89 93 95 98 101 103 107 114 121 130 141 151 161 175 190 202 214
255 260 259 255 251 247 243 240 236 232 233 235 236 238 250 270 279 279 282 295 310 320 333 348 353 353 354 355 355 358 7 21 36 44 48 52 55 53 49 45 42 39 37 36 36 41 45 45 43 41 41 41 42 46 51 54 55 57 59 61 63 65 66 67 68 71 75 78 81 86 94 100 106 112 119 125 132 140 150 161 172 182 192 202 211 219 226
253 258 258 257 256 250 244 240 238 236 234 233 231 231 241 260 275 275 272 277 284 294 308 328 340 345 341 345 359 17 26 38 51 56 53 54 59 61 60 56 52 47 44 40 37 39 42 44 43 42 40 39 41 47 53 56 59 61 63 65 66 68 69 71 72 73 77 83 87 92 100 112 122 135 149 162 172 180 186 193 200 204 209 214 218 222 227
253 257 257 255 255 251 245 241 238 237 235 233 231 231 237 250 262 265 264 266 269 272 281 298 319 340 340 330 342 21 43 52 60 59 53 50 56 63 64 63 59 55 52 48 46 45 46 46 43 41 39 38 41 46 51 54 58 63 66 69 72 74 75 76 77 77 78 82 85 88 92 98 105 116 129 143 151 150 145 145 146 146 146 151 159 168 177
251 251 252 251 250 248 245 241 238 238 236 233 230 230 234 241 248 254 257 259 260 261 264 271 283 308 326 314 310 1 47 55 63 66 62 60 62 65 67 68 65 61 57 54 51 50 51 51 49 48 45 42 41 44 47 51 56 63 67 70 73 75 77 79 81 83 83 83 85 87 90 92 95 100 103 107 111 112 112 113 113 111 108 107 108 110 114
253 250 250 249 249 250 248 243 241 241 240 236 232 231 233 235 239 245 250 253 254 255 255 256 262 279 299 298 285 279 310 89 86 77 74 79 79 76 73 72 70 67 64 60 55 52 50 51 52 54 54 54 52 51 49 50 54 61 67 71 73 74 77 79 80 81 82 84 85 87 89 91 95 99 103 104 105 104 102 101 101 100 98 96 95 95 97
260 255 252 250 249 249 248 245 242 241 240 235 231 230 231 233 236 240 245 248 251 252 253 254 255 257 259 263 272 278 270 236 197 175 166 143 105 87 81 77 75 73 71 66 62 57 53 51 50 51 54 57 60 59 58 56 57 61 65 68 71 74 78 78 77 77 80 84 86 88 90 93 96 101 104 104 103 100 96 94 94 94 92 91 90 89 88